Hourly Data Report for October 26, 2013

All times are specified in Local Standard Time (LST). Add 1 hour to adjust for Daylight Saving Time where and when it is observed.

FREDERICTON
NEW BRUNSWICK

45°52'08.000" N
66°32'14.000" W
20.70 m
8101505
71700
YFC

Download Data

Hourly Data (October 2013)
Hourly Data Report for October 26, 2013
Temp Definition
°C
Dew Point Temp Definition
°C
Rel Hum Definition
%
Wind Dir Definition
10's deg

Wind Spd Definition
km/h
Visibility Definition
km
Stn Press Definition
kPa
Hmdx Definition


Wind Chill Definition


Weather Definition


TIME
00:00 Legend Double Dagger 4.9 -1.6 63 27 11 16.1 101.18     LegendNANA
01:00 Legend Double Dagger 3.5 -1.4 70 25 11 16.1 101.24     LegendNANA
02:00 Legend Double Dagger 1.1 -1.7 82 23 15 16.1 101.26     LegendNANA
03:00 Legend Double Dagger -0.1 -2.1 86 19 5 16.1 101.27   -2 LegendNANA
04:00 Legend Double Dagger -1.2 -2.3 92 19 8 16.1 101.27   -4 LegendNANA
05:00 Legend Double Dagger -2.3 -3.0 95 21 9 16.1 101.31   -6 LegendNANA
06:00 Legend Double Dagger -2.9 -3.3 97 21 11 16.1 101.32   -7 LegendNANA
07:00 Legend Double Dagger -2.4 -2.7 98 18 15 16.1 101.38   -7 LegendNANA
08:00 Legend Double Dagger -1.0 -2.0 93 18 11 16.1 101.45   -5 LegendNANA
09:00 Legend Double Dagger 0.8 -0.9 89 18 13 16.1 101.47     LegendNANA
10:00 Legend Double Dagger 4.2 -0.3 73 26 11 16.1 101.45     LegendNANA
11:00 Legend Double Dagger 5.3 -1.6 61 25 9 16.1 101.44     LegendNANA
12:00 Legend Double Dagger 5.8 -3.0 53 25 15 16.1 101.39     LegendNANA
13:00 Legend Double Dagger 6.3 -3.1 51 23 21 16.1 101.34     LegendNANA
14:00 Legend Double Dagger 6.9 -3.9 46 23 22 16.1 101.32     LegendNANA
15:00 Legend Double Dagger 7.2 -4.2 44 22 17 16.1 101.28     LegendNANA
16:00 Legend Double Dagger 6.6 -3.5 49 20 15 16.1 101.25     LegendNANA
17:00 Legend Double Dagger 5.7 -2.9 54 17 8 16.1 101.19     LegendNANA
18:00 Legend Double Dagger 5.3 -2.5 57 14 9 16.1 101.14     LegendNANA
19:00 Legend Double Dagger 5.2 0.5 72 18 18 16.1 101.12     LegendNANA
20:00 Legend Double Dagger 4.2 3.5 95 16 11 8.1 101.09     LegendNANA
21:00 Legend Double Dagger 4.5 3.8 95 19 18 9.7 101.09     LegendNANA
22:00 Legend Double Dagger 4.3 3.1 92 24 11 16.1 101.07     LegendNANA
23:00 Legend Double Dagger 3.9 3.3 96 23 5 16.1 101.00     LegendNANA

Notes on Data Quality.

Legend

  • E = Estimated
  • M = Missing
  • NA = Not Available
  • ‡ = Partner data that is not subject to review by the National Climate Archives
Date modified: